245  
ASUS43 KBIS 280802  
RWRBIS  
 
NWR BROADCAST TEXT  
NATIONAL WEATHER SERVICE BISMARCK ND  
300 AM CDT THU OCT 28 2021  
 
NOTE: "FAIR" INDICATES FEW OR NO CLOUDS BELOW 12,000 FEET WITH NO  
SIGNIFICANT WEATHER AND/OR S TO VISIBILITY
.  
 
 
CITY SKY/WX TMP DP RH WIND PRES REMARKS
 
WILLISTON CLEAR 40 29 64 NW20 29.89R  
MINOT CLEAR 45 35 68 W15 29.78R  
MINOT AFB CLEAR 39 30 70 NW13 29.75R  
BISMARCK CLEAR 43 34 70 W12 29.83R  
DICKINSON CLEAR 42 28 57 W18 29.89R  
GARRISON N/A 42 34 73 NW14 29.80R  
HETTINGER ARPT CLEAR 43 28 55 NW25G33 29.92R  
JAMESTOWN CLEAR 38 34 85 W8 29.75R  
CARRINGTON FAIR 37 36 93 W12 29.77R  
HAZEN FAIR 39 36 87 SW10 29.86R  
MANDAN PTCLDY 41 36 81 W16G23 29.82R  
OAKES FAIR 37 37 100 SW5 29.77R  
RUGBY FAIR 32 32 100 W8 29.75R  
STANLEY FAIR 37 36 93 W16 29.84R  
TIOGA FAIR 37 34 87 NW14 29.87R  
WATFORD CITY FAIR 43 30 61 W10G18 29.90R  

 
 
CITY SKY/WX TMP DP RH WIND PRES REMARKS
 
GRAND FORKS MOCLDY 43 42 97 SW6 29.72R  
GRAND FORKS AF CLOUDY 44 43 96 S6 29.72R  
DEVILS LAKE CLEAR 38 35 89 SW6 29.74R  
FARGO MOCLDY 45 45 100 SW5 29.75R FOG  
CANDO FAIR 32 32 100 CALM 29.75R  
CAVALIER FAIR 41 41 100 CALM 29.70S FOG  
GRAFTON FAIR 43 43 100 S7 29.72S  
GWINNER CLEAR 39 39 100 SW8 29.77R  
LANGDON FAIR 39 39 100 W3 29.72R  
ROLLA FAIR 39 37 93 NW7 29.73R  
WALHALLA FAIR 45 45 100 W3 29.70S  

 
 
CITY SKY/WX TMP DP RH WIND PRES REMARKS
 
ABERDEEN PTCLDY 35 33 92 CALM 29.79R  
MOBRIDGE CLEAR 45 35 68 NW14 29.82R  
BUFFALO N/A 43 26 51 NW29G39 29.95R  
RAPID CITY CLEAR 48 23 37 NW33G52 30.00R  
GLASGOW CLEAR 38 25 59 N9 30.02R  
SIDNEY CLEAR 43 28 55 W24G33 29.94R  
WOLF POINT CLEAR 39 27 62 W10 30.00R  
GLENDIVE CLEAR 43 27 53 W24G30 30.00R  
MILES CITY CLEAR 41 25 53 W10 30.09R  
BAKER CLEAR 39 26 59 W16 30.03R  

 
 
CITY SKY/WX TMP DP RH WIND PRES REMARKS
 
BILLINGS CLEAR 41 20 43 SW7 30.18S  
GREAT FALLS PTCLDY 39 24 55 SW14 30.15R  

 
 
 
 
CLICK HERE TO GO TO PREVIOUS BULLETINS.

The Nexlab ND Page Main Text Page